• In Hungary
  • List of Countries
  • For 7 days
  • Water Temperature
  • Satellite Maps
  • Weather Map
  • News
  • Weather Widgets
  • user-avatar
    Login

    Hourly Weather Estelí

    Today, 21 July, Saturday

    Time Temperature Precipitation Wind Pressure Humidity
    00:00 +20°C° 0 mm 3 mps 687 mmHg 86%
    01:00 +20°C° 0 mm 2 mps 687 mmHg 86%
    02:00 +20°C° 0 mm 2 mps 686 mmHg 86%
    03:00 +20°C° 0 mm 2 mps 686 mmHg 86%
    04:00 +20°C° 0 mm 2 mps 686 mmHg 86%
    05:00 +20°C° 0 mm 2 mps 686 mmHg 86%
    06:00 +21°C° 0 mm 3 mps 687 mmHg 83%
    07:00 +24°C° 0 mm 3 mps 687 mmHg 77%
    08:00 +25°C° 0 mm 4 mps 687 mmHg 71%
    09:00 +26°C° 0 mm 5 mps 687 mmHg 65%
    10:00 +27°C° 0 mm 5 mps 687 mmHg 61%
    11:00 +28°C° 0 mm 5 mps 687 mmHg 56%
    12:00 +30°C° 0 mm 5 mps 687 mmHg 52%
    13:00 +30°C° 0 mm 5 mps 687 mmHg 51%
    14:00 +30°C° 0 mm 5 mps 687 mmHg 51%
    15:00 +30°C° 0 mm 5 mps 687 mmHg 50%
    16:00 +29°C° 0 mm 4 mps 687 mmHg 57%
    17:00 +27°C° 0 mm 4 mps 686 mmHg 63%
    18:00 +26°C° 0 mm 3 mps 686 mmHg 70%
    19:00 +24°C° 0 mm 2 mps 687 mmHg 74%
    20:00 +23°C° 0 mm 2 mps 687 mmHg 79%
    21:00 +21°C° 0 mm 2 mps 687 mmHg 83%
    22:00 +21°C° 0 mm 2 mps 687 mmHg 85%
    23:00 +21°C° 0 mm 2 mps 687 mmHg 86%

    Tomorrow, 22 July, Sunday

    Time Temperature Precipitation Wind Pressure Humidity
    00:00 +21°C° 0 mm 2 mps 687 mmHg 87%
    01:00 +20°C° 0 mm 2 mps 687 mmHg 88%
    02:00 +20°C° 0 mm 2 mps 686 mmHg 88%
    03:00 +20°C° 0 mm 2 mps 686 mmHg 89%
    04:00 +20°C° 0 mm 2 mps 686 mmHg 89%
    05:00 +20°C° 0 mm 2 mps 686 mmHg 89%
    06:00 +20°C° 0 mm 2 mps 686 mmHg 89%
    07:00 +22°C° 0 mm 3 mps 687 mmHg 80%
    08:00 +25°C° 0 mm 4 mps 687 mmHg 71%
    09:00 +27°C° 0 mm 5 mps 688 mmHg 63%
    10:00 +28°C° 0 mm 5 mps 688 mmHg 58%
    11:00 +29°C° 0 mm 6 mps 688 mmHg 53%
    12:00 +32°C° 0 mm 6 mps 688 mmHg 48%
    13:00 +32°C° 0 mm 6 mps 687 mmHg 47%
    14:00 +32°C° 0 mm 6 mps 687 mmHg 46%
    15:00 +33°C° 0 mm 6 mps 686 mmHg 45%
    16:00 +30°C° 0 mm 5 mps 686 mmHg 50%
    17:00 +28°C° 0 mm 4 mps 686 mmHg 56%
    18:00 +27°C° 0 mm 3 mps 686 mmHg 62%
    19:00 +25°C° 0 mm 3 mps 687 mmHg 69%
    20:00 +24°C° 0 mm 2 mps 687 mmHg 76%
    21:00 +21°C° 0 mm 2 mps 687 mmHg 82%
    22:00 +21°C° 0 mm 2 mps 687 mmHg 85%
    23:00 +20°C° 0 mm 2 mps 687 mmHg 87%

    Day after tomorrow, 23 July, Monday

    Time Temperature Precipitation Wind Pressure Humidity
    00:00 +20°C° 0 mm 2 mps 687 mmHg 89%
    01:00 +20°C° 0 mm 2 mps 687 mmHg 90%
    02:00 +19°C° 0 mm 2 mps 686 mmHg 90%
    03:00 +19°C° 0 mm 2 mps 686 mmHg 90%
    04:00 +19°C° 0 mm 2 mps 686 mmHg 90%
    05:00 +19°C° 0 mm 2 mps 686 mmHg 90%
    06:00 +19°C° 0 mm 2 mps 686 mmHg 90%
    07:00 +21°C° 0 mm 3 mps 687 mmHg 80%
    08:00 +24°C° 0 mm 3 mps 687 mmHg 70%
    09:00 +26°C° 0 mm 4 mps 688 mmHg 60%
    10:00 +27°C° 0 mm 4 mps 688 mmHg 55%
    11:00 +29°C° 0 mm 5 mps 688 mmHg 49%
    12:00 +30°C° 0 mm 5 mps 688 mmHg 44%
    13:00 +30°C° 0 mm 5 mps 688 mmHg 44%
    14:00 +30°C° 0 mm 5 mps 687 mmHg 44%
    15:00 +32°C° 0 mm 5 mps 687 mmHg 44%
    16:00 +29°C° 0 mm 4 mps 687 mmHg 51%
    17:00 +27°C° 0 mm 3 mps 687 mmHg 58%
    18:00 +26°C° 0 mm 2 mps 687 mmHg 65%
    19:00 +24°C° 0 mm 2 mps 687 mmHg 70%
    20:00 +23°C° 0 mm 2 mps 687 mmHg 76%
    21:00 +21°C° 0 mm 2 mps 688 mmHg 82%
    22:00 +20°C° 0 mm 2 mps 688 mmHg 85%
    23:00 +20°C° 0 mm 2 mps 687 mmHg 87%

    24 July, Tuesday

    Time Temperature Precipitation Wind Pressure Humidity
    00:00 +19°C° 0 mm 2 mps 687 mmHg 90%
    01:00 +19°C° 0 mm 2 mps 687 mmHg 91%
    02:00 +20°C° 0 mm 1 mps 687 mmHg 92%
    03:00 +19°C° 0 mm 1 mps 687 mmHg 93%
    04:00 +19°C° 0 mm 1 mps 687 mmHg 93%
    05:00 +19°C° 0 mm 1 mps 687 mmHg 93%
    06:00 +19°C° 0 mm 1 mps 687 mmHg 93%
    07:00 +21°C° 0 mm 2 mps 688 mmHg 82%
    08:00 +24°C° 0 mm 2 mps 689 mmHg 71%
    09:00 +26°C° 0 mm 2 mps 689 mmHg 60%
    10:00 +27°C° 0 mm 3 mps 689 mmHg 55%
    11:00 +29°C° 0 mm 3 mps 689 mmHg 50%
    12:00 +30°C° 0 mm 3 mps 689 mmHg 45%
    13:00 +30°C° 0 mm 3 mps 688 mmHg 47%
    14:00 +29°C° 0 mm 3 mps 688 mmHg 49%
    15:00 +29°C° 0 mm 3 mps 687 mmHg 50%
    16:00 +27°C° 0.3 mm 3 mps 687 mmHg 61%
    17:00 +25°C° 0.3 mm 2 mps 687 mmHg 71%
    18:00 +23°C° 0.3 mm 2 mps 687 mmHg 82%
    19:00 +23°C° 0.3 mm 2 mps 687 mmHg 85%
    20:00 +21°C° 0.3 mm 2 mps 688 mmHg 88%
    21:00 +21°C° 0.3 mm 1 mps 688 mmHg 90%
    22:00 +21°C° 0 mm 1 mps 688 mmHg 91%
    23:00 +21°C° 0 mm 1 mps 688 mmHg 91%

    25 July, Wednesday

    Time Temperature Precipitation Wind Pressure Humidity
    00:00 +21°C° 0 mm 1 mps 688 mmHg 92%
    01:00 +20°C° 0 mm 1 mps 687 mmHg 92%
    02:00 +20°C° 0 mm 1 mps 687 mmHg 93%
    03:00 +20°C° 0 mm 1 mps 686 mmHg 93%
    04:00 +20°C° 0 mm 1 mps 687 mmHg 93%
    05:00 +20°C° 0 mm 1 mps 687 mmHg 92%
    06:00 +19°C° 0 mm 2 mps 687 mmHg 92%
    07:00 +21°C° 0 mm 2 mps 688 mmHg 83%
    08:00 +24°C° 0 mm 2 mps 689 mmHg 74%
    09:00 +26°C° 0 mm 2 mps 689 mmHg 66%
    10:00 +27°C° 0.1 mm 3 mps 689 mmHg 63%
    11:00 +28°C° 0.1 mm 3 mps 689 mmHg 59%
    12:00 +29°C° 0.1 mm 3 mps 688 mmHg 56%
    13:00 +28°C° 0.5 mm 3 mps 688 mmHg 60%
    14:00 +28°C° 0.5 mm 3 mps 687 mmHg 63%
    15:00 +27°C° 0.5 mm 3 mps 687 mmHg 66%
    16:00 +26°C° 0.1 mm 3 mps 687 mmHg 70%
    17:00 +25°C° 0.1 mm 2 mps 687 mmHg 74%
    18:00 +24°C° 0.1 mm 2 mps 687 mmHg 78%
    19:00 +23°C° 0.3 mm 2 mps 687 mmHg 81%
    20:00 +21°C° 0.3 mm 2 mps 688 mmHg 85%
    21:00 +22°C° 0.3 mm 1 mps 688 mmHg 89%
    22:00 +22°C° 0.5 mm 1 mps 688 mmHg 90%
    23:00 +21°C° 0.5 mm 1 mps 688 mmHg 91%

    26 July, Thursday

    Time Temperature Precipitation Wind Pressure Humidity
    00:00 +21°C° 0.5 mm 1 mps 688 mmHg 93%
    01:00 +21°C° 0.6 mm 1 mps 687 mmHg 93%
    02:00 +21°C° 0.6 mm 1 mps 687 mmHg 94%
    03:00 +21°C° 0.6 mm 1 mps 686 mmHg 94%
    04:00 +21°C° 0.6 mm 1 mps 687 mmHg 94%
    05:00 +21°C° 0.6 mm 1 mps 687 mmHg 94%
    06:00 +21°C° 0.6 mm 1 mps 687 mmHg 94%
    07:00 +21°C° 0.7 mm 1 mps 688 mmHg 92%
    08:00 +22°C° 0.7 mm 1 mps 688 mmHg 89%
    09:00 +23°C° 0.7 mm 1 mps 688 mmHg 86%
    10:00 +23°C° 0.6 mm 1 mps 688 mmHg 86%
    11:00 +23°C° 0.6 mm 2 mps 688 mmHg 85%
    12:00 +23°C° 0.6 mm 2 mps 688 mmHg 85%
    13:00 +24°C° 0.3 mm 2 mps 687 mmHg 82%
    14:00 +24°C° 0.3 mm 2 mps 687 mmHg 80%
    15:00 +25°C° 0.3 mm 2 mps 687 mmHg 77%
    16:00 +24°C° 0.3 mm 2 mps 687 mmHg 81%
    17:00 +23°C° 0.3 mm 2 mps 687 mmHg 85%
    18:00 +23°C° 0.3 mm 2 mps 687 mmHg 88%
    19:00 +21°C° 0.1 mm 2 mps 687 mmHg 90%
    20:00 +21°C° 0.1 mm 2 mps 688 mmHg 91%
    21:00 +20°C° 0.1 mm 2 mps 688 mmHg 93%
    22:00 +20°C° 0.1 mm 2 mps 688 mmHg 93%
    23:00 +20°C° 0.1 mm 2 mps 687 mmHg 93%
    Show more